Regional Weather Roundup
Issued by NWS

Home | Current Version | Previous Version | Graphics & Text | Print | Product List | Glossary Off
Versions: 1 2 3 4 5 6 7 8 9 10 11 12 13 14 15 16 17 18 19 20 21 22 23 24 25 26 27 28 29 30 31 32 33 34 35 36 37 38 39 40 41 42 43 44 45 46 47 48 49 50

861
ASUS43 KTOP 270859
RWRKS

WEATHER ROUNDUP FOR KANSAS
NATIONAL WEATHER SERVICE GOODLAND KS
400 AM CDT TUE SEP 27 2016

NOTE:  "FAIR" INDICATES FEW OR NO CLOUDS BELOW 12,000 FEET WITH NO
SIGNIFICANT WEATHER AND/OR OBSTRUCTIONS TO VISIBILITY.

KSZ001>006-013>018-027>032-041>047-271000-
NORTHWEST KANSAS

CITY           SKY/WX    TMP DP  RH WIND       PRES   REMARKS
GOODLAND       CLEAR     49  40  71 W7        30.19F
HAYS           CLEAR     48  34  57 W5        30.11F
HILL CITY      CLEAR     49  44  83 W7        30.12F
RUSSELL        CLEAR     51  43  74 SW9       30.09F
$$

KSZ061>065-074>080-084>089-271000-
SOUTHWEST KANSAS

CITY           SKY/WX    TMP DP  RH WIND       PRES   REMARKS
DODGE CITY     CLEAR     52  38  58 SW10      30.16F
ELKHART          N/A     56  34  43 SW9         N/A
GARDEN CITY    CLEAR     45  36  70 SW9       30.16F
GREAT BEND     CLEAR     52  37  58 S10       30.12F
LIBERAL        CLEAR     54  36  50 SW10      30.20F
$$

KSZ066>073-081>083-090>101-271000-
SOUTHEAST KANSAS

CITY           SKY/WX    TMP DP  RH WIND       PRES   REMARKS
CHANUTE        CLEAR     53  48  83 SW5       30.11F
COFFEYVILLE    CLEAR     49  48  97 CALM      30.13F
HUTCHINSON     CLEAR     57  45  64 SW7       30.13F
MEDICINE LODGE   N/A     49  47  93 CALM      30.15F
PARSONS        CLEAR     47  46  97 CALM      30.14F
WICHITA INTL   CLEAR     53  47  79 SW6       30.12F
WICHITA JABRA  CLEAR     56  45  66 SW8       30.12F
WINFIELD       CLEAR     53  49  86 SW3       30.15F
$$

KSZ007>012-019>026-033>040-048>060-102>105-271000-
NORTHEAST KANSAS

CITY           SKY/WX    TMP DP  RH WIND       PRES   REMARKS
CONCORDIA      CLEAR     56  45  66 W8        30.08F
EMPORIA        CLEAR     52  46  80 SW6       30.10F
LAWRENCE       CLEAR     49  48  97 CALM      30.08F
MANHATTAN      CLEAR     48  47  96 SW3       30.09F
OLATHE IND     CLEAR     53  47  79 SW6       30.09F
OLATHE EXE     CLEAR     54  46  74 SW6       30.08F
SALINA         CLEAR     52  45  77 S5        30.10F
TOPEKA BILLARD CLEAR     51  47  86 CALM      30.08F
TOPEKA FORBES  CLEAR     54  47  77 SW5       30.08F
$$




USA.gov is the U.S. government's official web portal to all federal, state and local government web resources and services.